Location: North Mitre
(40.7833°S, 175.4667°E)
Time: 18:57:16
(UTC+00:00)

Lacrosse 5 - Pass Details

Date: 04 August 2024
Orbit: 714 x 724 km, 57.0° (Epoch: 09 March)

Event Time Altitude Azimuth Distance (km) Brightness Sun altitude
Exits shadow 16:31:24 13° 168° (SSE) 2,055 4.4 -32.2°
Drops below altitude 10° 16:32:23 10° 158° (SSE) 2,247 4.7 -32.0°
Sets 16:35:42 0° 136° (SE) 3,171 5.8 -31.4°
